Weather History for KMLF - July, 2014

Change the Weather History Date:

Thursday, July 3, 2014

  Actual Average Record
Temperature  
Mean Temperature 80 °F -  
Max Temperature 99 °F 91 °F 102 °F (2001)
Min Temperature 62 °F 52 °F 48 °F (1997)
Cooling Degree Days 16    
Growing Degree Days 30 (Base 50)    
Moisture  
Dew Point 36 °F    
Average Humidity 21    
Maximum Humidity 53    
Minimum Humidity 4    
Precipitation  
Precipitation 0.00 in - - ()
Sea Level Pressure  
Sea Level Pressure 29.86 in    
Wind  
Wind Speed 12 mph (SSW)    
Max Wind Speed 23 mph    
Max Gust Speed 30 mph    
Visibility 10 miles    
Events      
Averages and records for this station are not official NWS values.
T = Trace of Precipitation, MM = Missing Value Source: NWS Daily Summary

Daily Weather History Graph

Daily Weather History Graph

Search for Another Location

Airport or City:

Trip Planner

Search our weather history database for the weather conditions in past years. The results will help you decide how hot, cold, wet, or windy it might be!

Date:

Astronomy

Jul. 03, 2014 Rise Set
Actual Time 6:12 AM MDT 8:59 PM MDT
Civil Twilight 5:41 AM MDT 9:31 PM MDT
Nautical Twilight 5:01 AM MDT 10:10 PM MDT
Astronomical Twilight 4:16 AM MDT 10:55 PM MDT
Moon 12:10 PM MDT (7/3) No Moon Set
Length of Visible Light 15h 49m
Length of Day
14h 46m
Waxing Crescent, 33% of the Moon is Illuminated
Jul 3
Waxing Crescent
Jul 5
First Quarter
Jul 12
Full
Jul 18
Last Quarter
Jul 26
New

Hourly Weather History & Observations

Time (MDT) Temp. Dew Point Humidity Pressure Visibility Wind Dir Wind Speed Gust Speed Precip Events Conditions
12:52 AM 75.9 °F 42.1 °F 30% 29.84 in 10.0 mi SSW 12.7 mph - N/A   Clear
1:52 AM 75.0 °F 41.0 °F 29% 29.82 in 10.0 mi SW 9.2 mph - N/A   Clear
2:52 AM 66.9 °F 42.1 °F 40% 29.84 in 10.0 mi SSW 5.8 mph - N/A   Clear
3:52 AM 63.0 °F 44.1 °F 50% 29.85 in 10.0 mi SSE 4.6 mph - N/A   Clear
4:52 AM 66.9 °F 41.0 °F 39% 29.86 in 10.0 mi South 11.5 mph - N/A   Clear
5:52 AM 66.9 °F 43.0 °F 42% 29.88 in 10.0 mi SSW 12.7 mph - N/A   Clear
6:52 AM 62.1 °F 45.0 °F 53% 29.91 in 10.0 mi SSE 5.8 mph - N/A   Clear
7:52 AM 68.0 °F 46.4 °F 46% 30.12 in 10.0 mi SSE 8.1 mph - N/A   Clear
8:52 AM 75.0 °F 41.0 °F 29% 29.92 in 10.0 mi SSW 13.8 mph - N/A   Clear
9:52 AM 81.0 °F 42.1 °F 25% 29.91 in 10.0 mi South 10.4 mph - N/A   Clear
10:52 AM 87.1 °F 39.9 °F 19% 29.90 in 10.0 mi South 17.3 mph - N/A   Clear
11:52 AM 91.0 °F 37.9 °F 15% 29.89 in 10.0 mi South 18.4 mph 27.6 mph N/A   Clear
12:52 PM 93.2 °F 37.4 °F 14% 30.11 in 10.0 mi SSW 21.9 mph 29.9 mph N/A   Clear
1:52 PM 95.0 °F 35.1 °F 12% 29.83 in 10.0 mi SSW 19.6 mph 29.9 mph N/A   Clear
2:52 PM 96.1 °F 30.9 °F 10% 29.84 in 10.0 mi SSW 16.1 mph 26.5 mph N/A   Clear
3:52 PM 98.1 °F 27.0 °F 8% 29.82 in 10.0 mi SSW 17.3 mph 28.8 mph N/A   Clear
4:52 PM 96.1 °F 30.9 °F 10% 29.80 in 10.0 mi South 21.9 mph 29.9 mph N/A   Clear
5:52 PM 95.0 °F 30.0 °F 10% 29.79 in 10.0 mi South 17.3 mph - N/A   Clear
6:52 PM 95.0 °F 24.1 °F 8% 29.78 in 10.0 mi SSW 13.8 mph 27.6 mph N/A   Clear
7:52 PM 91.0 °F 27.0 °F 10% 29.79 in 10.0 mi SW 23.0 mph - N/A   Clear
8:52 PM 87.1 °F 28.0 °F 12% 29.80 in 10.0 mi SSW 15.0 mph - N/A   Clear
9:52 PM 80.1 °F 34.0 °F 19% 29.81 in 10.0 mi South 10.4 mph - N/A   Clear
10:52 PM 79.0 °F 33.1 °F 19% 29.83 in 10.0 mi South 13.8 mph - N/A   Clear
11:52 PM 78.1 °F 33.1 °F 19% 29.84 in 10.0 mi South 11.5 mph - N/A   Clear